sat.trackr.live / text

‹ back to catalog

GOES 19

NORAD 60133 · 2024-119A

PAYLOAD ACTIVE UNKNOWN

§ Identity

Operator
Country
US
Launch date
2024-06-25
Launch site
AFETR
Launch vehicle
Mass (kg)
RCS (m²)

Purposes: comms, earth_obs

External: N2YO · Heavens-Above · Gunter

§ Orbital elements

Epoch: 2026-09-19T21:44:46.347072Z

Period
1,436.10 min
Inclination
0.0405°
Eccentricity
0.0000325
Mean motion
1.00271642 rev/d
Perigee alt
35,785.3 km
Apogee alt
35,788.0 km
Semi-major
42,164.8 km
B*
0.0000e+0
RAAN
2.7397°
Arg perigee
247.8067°
Mean anomaly
359.2727°
Rev number
791

§ Raw data

GOES 191 60133U 24119A   26262.90609198 -.00000253  00000+0  00000+0 0  99992 60133   0.0405   2.7397 0000325 247.8067 359.2727  1.00271642  7911

JSON: /api/v1/satellites/60133 · /tle

For live sub-satellite position, see the globe view (requires WebGL).

§ Visibility from observer

Set your observer location to see the next 7 days of passes ≥ 10°. The values pass through the URL so the page stays shareable.

No JS? Fill the form by hand. The geolocation button needs JavaScript.

§ Radio — SatNOGS DB

ModeDescriptionDownlinkUplink
BPSK CDA 1.693 GHz
FM GRB 1.682 GHz
FM HRIT 16.941 GHz
FM HRIT 1.694 GHz

4 transmitters · refreshed weekly from db.satnogs.org